Weather History for Bolton Field, OH

Change the Weather History Date:

Saturday, August 31, 2013

  Actual Average Record
Temperature  
Mean Temperature 76 °F -  
Max Temperature 84 °F 79 °F 93 °F (2012)
Min Temperature 67 °F 59 °F 51 °F (1999)
Cooling Degree Days 10    
Growing Degree Days 26 (Base 50)    
Moisture  
Dew Point 69 °F    
Average Humidity 90    
Maximum Humidity 100    
Minimum Humidity 70    
Precipitation  
Precipitation 0.11 in - - ()
Sea Level Pressure  
Sea Level Pressure 29.85 in    
Wind  
Wind Speed 5 mph (SSW)    
Max Wind Speed 14 mph    
Max Gust Speed 23 mph    
Visibility 8 miles    
Events Rain , Thunderstorm    
Averages and records for this station are not official NWS values.
T = Trace of Precipitation, MM = Missing Value Source: NWS Daily Summary

Daily Weather History Graph

Daily Weather History Graph

Search for Another Location

Airport:

Trip Planner

Search our weather history database for the weather conditions in past years. The results will help you decide how hot, cold, wet, or windy it might be!

Date:

Astronomy

Aug. 31, 2013 Rise Set
Actual Time 6:59 AM EDT 8:05 PM EDT
Civil Twilight 6:31 AM EDT 8:32 PM EDT
Nautical Twilight 5:58 AM EDT 9:05 PM EDT
Astronomical Twilight 5:24 AM EDT 9:40 PM EDT
Moon 2:27 AM EDT (8/31) 5:02 PM EDT (8/31)
Length of Visible Light 14h 00m
Length of Day
13h 05m
Waning Crescent, 21% of the Moon is Illuminated
Aug 31
Waning Crescent
Sep 5
New
Sep 12
First Quarter
Sep 19
Full
Sep 26
Last Quarter

Hourly Weather History & Observations

Time (EDT) Temp. Heat Index Dew Point Humidity Pressure Visibility Wind Dir Wind Speed Gust Speed Precip Events Conditions
12:15 AM 70.7 °F - 67.6 °F 90% 29.85 in 7.0 mi South 4.6 mph - N/A   Clear
12:35 AM 71.1 °F - 67.6 °F 89% 29.85 in 7.0 mi South 3.5 mph - N/A   Clear
12:55 AM 70.3 °F - 67.6 °F 91% 29.86 in 7.0 mi SSW 3.5 mph - N/A   Clear
1:15 AM 70.2 °F - 67.6 °F 92% 29.86 in 7.0 mi South 5.8 mph - N/A   Clear
1:35 AM 70.2 °F - 67.6 °F 92% 29.85 in 7.0 mi South 4.6 mph - N/A   Clear
1:55 AM 70.7 °F - 68.0 °F 91% 29.85 in 7.0 mi South 4.6 mph - N/A   Clear
2:15 AM 69.8 °F - 67.6 °F 93% 29.85 in 7.0 mi South 3.5 mph - N/A   Scattered Clouds
2:35 AM 69.8 °F - 67.6 °F 93% 29.85 in 7.0 mi SSW 4.6 mph - N/A   Mostly Cloudy
2:55 AM 70.7 °F - 68.0 °F 91% 29.85 in 7.0 mi South 3.5 mph - N/A   Overcast
3:15 AM 70.2 °F - 68.0 °F 93% 29.84 in 7.0 mi South 3.5 mph - N/A   Overcast
3:35 AM 70.2 °F - 68.0 °F 93% 29.83 in 7.0 mi South 4.6 mph - N/A   Mostly Cloudy
3:55 AM 70.2 °F - 67.5 °F 91% 29.82 in 7.0 mi South 4.6 mph - N/A   Scattered Clouds
4:15 AM 70.2 °F - 67.8 °F 92% 29.82 in 7.0 mi SSW 4.6 mph - N/A   Clear
4:35 AM 70.3 °F - 68.0 °F 92% 29.82 in 7.0 mi Calm Calm - N/A Rain , Thunderstorm Light Thunderstorms and Rain
4:55 AM 70.7 °F - 68.5 °F 93% 29.87 in 7.0 mi North 13.8 mph - N/A Rain , Thunderstorm Light Thunderstorms and Rain
5:15 AM 70.7 °F - 68.4 °F 92% 29.90 in 5.0 mi North 12.7 mph 18.4 mph 0.03 in Rain , Thunderstorm Rain
5:35 AM 68.9 °F - 66.9 °F 93% 29.87 in 10.0 mi NNE 4.6 mph - 0.08 in Rain , Thunderstorm Light Thunderstorms and Rain
5:55 AM 68.0 °F - 66.7 °F 96% 29.84 in 7.0 mi South 3.5 mph - 0.10 in Rain , Thunderstorm Heavy Thunderstorms and Rain
6:15 AM 67.5 °F - 66.7 °F 98% 29.84 in 10.0 mi SE 3.5 mph - 0.01 in   Scattered Clouds
6:35 AM 67.3 °F - 66.6 °F 98% 29.82 in 10.0 mi South 4.6 mph - 0.01 in   Clear
6:55 AM 68.0 °F - 66.6 °F 95% 29.83 in 10.0 mi South 4.6 mph - 0.01 in   Scattered Clouds
7:15 AM 68.4 °F - 67.5 °F 97% 29.86 in 7.0 mi Calm Calm - N/A   Scattered Clouds
7:25 AM 68.0 °F - 68.0 °F 100% 29.86 in 6.0 mi South 3.5 mph - N/A   Scattered Clouds
7:47 AM 68.0 °F - 68.0 °F 100% 29.86 in 5.0 mi SSE 3.5 mph - N/A   Scattered Clouds
8:47 AM 69.8 °F - 69.8 °F 100% 29.88 in 5.0 mi Calm Calm - N/A   Clear
9:50 AM 75.2 °F - 71.6 °F 89% 29.87 in 10.0 mi SSW 4.6 mph - N/A   Clear
10:47 AM 80.6 °F 85.4 °F 73.4 °F 79% 29.88 in 10.0 mi SSW 8.1 mph - N/A   Mostly Cloudy
11:50 AM 80.6 °F 85.4 °F 73.4 °F 79% 29.88 in 10.0 mi SW 9.2 mph - N/A   Mostly Cloudy
12:50 PM 82.4 °F 88.2 °F 73.4 °F 74% 29.87 in 10.0 mi SW 11.5 mph - N/A   Mostly Cloudy
1:50 PM 84.2 °F 90.9 °F 73.4 °F 70% 29.87 in 10.0 mi WSW 9.2 mph 16.1 mph N/A   Mostly Cloudy
2:50 PM 82.4 °F 88.2 °F 73.4 °F 74% 29.86 in 10.0 mi SSW 12.7 mph 23.0 mph N/A   Mostly Cloudy
3:50 PM 84.2 °F 90.9 °F 73.4 °F 70% 29.84 in 10.0 mi SSW 11.5 mph 23.0 mph N/A   Scattered Clouds
4:50 PM 84.2 °F 90.9 °F 73.4 °F 70% 29.82 in 10.0 mi WSW 11.5 mph - N/A   Overcast
5:58 PM 80.6 °F 85.4 °F 73.4 °F 79% 29.82 in 10.0 mi SW 5.8 mph - N/A   Scattered Clouds
6:50 PM 78.8 °F - 73.4 °F 83% 29.83 in 10.0 mi South 6.9 mph - N/A   Mostly Cloudy
7:35 PM 75.0 °F - 69.1 °F 82% 29.84 in 10.0 mi NW 8.1 mph 19.6 mph N/A Rain Light Rain
7:55 PM 72.5 °F - 69.4 °F 90% 29.84 in 10.0 mi WNW 5.8 mph - N/A Rain Light Rain
8:15 PM 72.0 °F - 70.7 °F 96% 29.84 in 10.0 mi East 4.6 mph - N/A   Scattered Clouds
8:35 PM 72.1 °F - 71.1 °F 96% 29.84 in 10.0 mi Calm Calm - N/A   Scattered Clouds
8:55 PM 72.5 °F - 71.6 °F 97% 29.84 in 10.0 mi West 3.5 mph - N/A   Clear
9:15 PM 71.8 °F - 71.4 °F 99% 29.84 in 7.0 mi SE 3.5 mph - N/A   Clear
9:35 PM 72.7 °F - 70.7 °F 93% 29.84 in 10.0 mi South 5.8 mph - N/A   Clear
9:55 PM 72.5 °F - 71.2 °F 96% 29.84 in 10.0 mi SW 3.5 mph - N/A   Clear
10:15 PM 73.6 °F - 70.0 °F 88% 29.84 in 10.0 mi West 4.6 mph - N/A   Clear
10:35 PM 74.5 °F - 67.6 °F 79% 29.84 in 10.0 mi West 4.6 mph - N/A   Clear
10:55 PM 71.6 °F - 69.1 °F 92% 29.83 in 10.0 mi ESE 3.5 mph - N/A   Clear
11:15 PM 71.6 °F - 68.7 °F 91% 29.84 in 10.0 mi East 4.6 mph - N/A   Clear
11:35 PM 71.6 °F - 69.4 °F 93% 29.84 in 10.0 mi Calm Calm - N/A   Clear
11:55 PM 70.5 °F - 69.4 °F 96% 29.84 in 10.0 mi Calm Calm - N/A   Clear